Location: Munkebjergskolens Observatorium
(55.3864°N, 10.3987°E)
Time: 08:37:48
(UTC+02:00)

JY1SAT - Pass Details

Date: 09 April 2023
Orbit: 555 x 574 km, 97.6° (Epoch: 03 June)

Event Time Altitude Azimuth Distance (km) Brightness Sun altitude
Exits shadow 23:38:33 14° 241° (WSW) 1,611 ? -23.4°
Maximum altitude 23:40:15 18° 271° (W) 1,439 ? -23.6°
Drops below altitude 10° 23:43:04 10° 315° (NW) 1,885 ? -23.7°
Sets 23:45:50 0° 335° (NNW) 2,794 ? -23.9°
